OPS 4682 DEB, 38363

Orbit data source: Space-Track

OPS 4682 DEB, 38363 is space debris in LEO originally from a launch on Sat, 03 Apr 1965 UTC launched from the Air Force Western Test Range (AFWTR). Debris objects in space refer to the collection of defunct objects orbiting the Earth. Examples of debris include non-operational satellites, rocket bodies, and fragments generated from explosions, collisions, or faulty payload assembly.

Loading next visibility...
Identifier
38363, 1965-027BQ
Orbit
LEO
Country
Flag of USUS
Related business
Manufacturer
Unknown
Mission
Spacecraft
Bus & Motor
Unknown
Mass
Unknown
Launch date (UTC)
1965-04-03 (61 years ago)
Launch vehicle
Unknown
Launch site
Air Force Western Test Range (AFWTR)
Object type
Payload
Rocket body
Debris
Shape & HBR
Unknown shape, 0.1 m
Radar Cross Section
Small (<0.1 m²)

Expand to show TLE details & history
Last TLE update: 15 hours ago

TLE from 15 hours ago
0 OPS 4682 DEB
1 38363U 65027BQ  26107.18371696  .00000791  00000-0  25515-2 0  9997
2 38363  90.2468   8.2362 0032026   9.5799 350.5928 13.01265422544222
Epoch: 2026-04-17T04:24Z
TLE epoch observation values (Epoch: 2026-04-17T04:24:33.145Z)
Latitude
-0°
Longitude
96.77754°
Altitude
1,235.892 km
Speed
7.248 km/s
True Right ascension
00h 32m 56s
True Declination
0° 00' 00"
Sunlit
Object was in daylight at epoch
Visualization orbit readout
Latitude
Unknown
Longitude
Unknown
Altitude
Unknown
Speed
Unknown
Apparent Right ascension
Unknown
Apparent Declination
Unknown
Sunlit
N/A
Visualization observer readout
Local Sidereal Time
01:51:20
Azimuth
Unknown
Elevation
Unknown
Doppler factor
Unknown
Orbital elements
Apogee altitude
1,278.701 km
Perigee altitude
1,229.814 km
Semi-major axis
7,632.395 km
Eccentricity
0.0032
Inclination
90.2468°
RAAN
8.2362°
Arg. of periapsis
9.5799°
True anomaly
350.53258°
Mean anomaly
350.5928°
Eccentric anomaly
350.56271°
Mean motion
3.25501 °/min
Orbital period
110.6 mins
BSTAR
0.0025515
Loading maneuver chart data...
Computing Atmospheric mass density...
Loading historical data...
Loading historical data...
Loading historical data...
Loading historical data...
Loading historical data...
Loading historical data...
Loading historical data...

Documentation

Showing up to 5 results
|